Location: Montichiari
(45.4167°N, 10.3833°E)
Time: 10:19:57
(UTC+00:00)

Daily predictions for brighter satellites

Satellite Brightness Start Highest point End
(mag) Time Altitude Azimuth Time Altitude Azimuth Time Altitude Azimuth
ATLAS 3B R/B 4.1 19:35:50 10° NNW 19:42:01 30° NNE 19:47:53 10° E
Cosmos 405 3.9 19:43:48 10° NNW 19:47:21 51° W 19:50:52 10° S
Cosmos 1328 3.8 19:43:51 10° S 19:47:45 63° E 19:51:42 10° NNE
Cosmos 1271 Rocket 3.9 19:49:09 10° NNE 19:52:29 27° ENE 19:55:52 10° SE
NOSS 3-1 (C) 3.5 19:50:46 10° SSW 19:56:30 58° ESE 20:02:54 10° NE
Cosmos 1707 Rocket 3.7 19:52:49 10° N 19:57:09 60° E 20:01:28 10° SSE
H-2A R/B 2.7 19:53:05 10° S 19:57:33 60° WSW 20:02:02 10° NNW
Cosmos 2227 Rocket 3.5 19:54:15 10° SSE 19:58:24 21° E 20:02:34 10° NE
Terra 3.6 19:56:25 10° ESE 19:59:45 19° ENE 20:03:05 10° NNE
Cosmos 1666 Rocket 3.9 19:59:04 10° SSE 20:03:17 48° E 20:07:34 10° NNE
Nadezhda 2 Rocket 4.5 19:58:49 10° S 20:04:56 83° E 20:11:04 10° N
Cosmos 1626 4.2 20:03:14 10° ESE 20:05:07 13° E 20:07:00 10° NE
Cosmos 1703 4.4 20:02:07 10° SSE 20:05:23 26° E 20:08:41 10° NNE
SL-14 R/B 3.6 20:02:29 10° SSE 20:06:18 48° E 20:10:12 10° NNE
ERS-1 Rocket 4.3 20:03:06 10° SSW 20:07:47 39° W 20:12:31 10° NNW
Meteor 1-11 4.3 20:04:32 10° S 20:10:13 66° E 20:15:54 10° NNE
SL-16 R/B 3.8 20:07:04 10° N 20:11:33 23° NE 20:16:01 10° E
Envisat 3.5 20:06:33 10° S 20:11:33 59° W 20:16:35 10° NNW
MetOp-A 4.2 20:06:44 10° SSE 20:12:05 90° S 20:17:29 10° NNW
Cosmos 1674 4.4 20:08:53 10° SW 20:12:28 36° WNW 20:16:05 10° N
YAOGAN 6 2.6 20:09:41 10° SSE 20:13:18 74° ENE 20:16:54 10° N
Cosmos 2333 Rocket 2.7 20:08:45 10° NNW 20:14:22 51° ENE 20:19:30 12° SE
Cosmos 1437 4.2 20:12:38 10° SSW 20:15:45 40° WNW 20:18:53 10° N
USA 32 4.3 20:12:46 10° N 20:17:56 53° E 20:22:43 12° SSE
COSMOS 2455 4.0 20:14:18 10° NNW 20:19:45 34° NE 20:25:09 10° ESE
ARGOS 3.3 20:17:26 11° SSE 20:22:36 68° ENE 20:27:58 10° N
OTV 4 2.7 20:22:45 10° S 20:23:20 11° S 20:23:20 11° S
Cosmos 2297 Rocket 3.3 20:21:05 12° SSE 20:25:01 24° ESE 20:29:29 10° NE
Cosmos 1300 3.1 20:21:36 10° NNW 20:25:25 62° W 20:29:13 10° S
COSMOS 2428 3.2 20:20:40 10° NW 20:26:13 56° WSW 20:31:45 10° S
Cosmos 2219 Rocket 2.2 20:21:34 10° NNW 20:27:12 80° ENE 20:31:59 15° SSE
CZ-4 R/B 4.1 20:23:42 10° NNE 20:28:31 51° E 20:33:13 10° S
Cosmos 1937 Rocket 3.6 20:25:31 10° S 20:30:38 58° ESE 20:35:44 10° NNE
ERBS 2.9 20:31:23 10° SSW 20:34:36 35° SE 20:37:49 10° ENE
Lacrosse 4 Rocket 3.1 20:31:01 10° N 20:34:47 27° NE 20:38:19 11° ESE
Cosmos 990 Rocket 4.2 20:33:43 10° S 20:38:38 48° ESE 20:43:35 10° NNE
Cosmos 2058 3.9 20:36:01 10° SSW 20:39:57 46° WNW 20:43:56 10° N
Cosmos 2298 Rocket 4.3 20:35:38 10° SSW 20:40:57 74° WNW 20:46:18 10° NNE
Tiangong 1 1.4 20:39:07 10° WSW 20:42:04 42° S 20:43:59 18° ESE
Meteor 2-10 4.3 20:38:21 10° N 20:44:07 84° E 20:48:53 15° SSE
Cosmos 1455 2.5 20:44:00 10° N 20:47:45 53° ENE 20:49:57 22° SSE
FALCON 9 R/B 4.4 20:18:31 10° WSW 20:47:56 52° S 20:54:58 14° ESE
CZ-4B R/B 3.7 20:43:24 10° NNE 20:48:41 79° WNW 20:53:51 10° SSW
Cosmos 1980 3.7 20:43:41 10° NNW 20:49:22 86° ENE 20:53:30 19° SSE
Sich 1 3.7 20:50:52 10° SSW 20:55:11 55° WNW 20:59:31 10° N
Cosmos 1862 Rocket 3.5 20:51:53 10° N 20:56:13 68° E 20:58:52 23° SSE
Cosmos 1726 3.6 20:53:05 10° NNW 20:56:31 33° W 20:59:56 10° SSW
Cosmos 2242 Rocket 4.2 20:53:43 10° NNW 20:58:06 53° W 21:01:56 13° SSW
CARTOSAT-1 3.6 20:56:35 22° SSE 20:59:13 65° ENE 21:03:31 10° N
Cosmos 1633 Rocket 3.9 20:57:04 10° SSW 21:01:19 50° WNW 21:05:36 10° N
Cosmos 1269 Rocket 4.5 20:56:15 10° NNW 21:01:27 50° ENE 21:04:46 21° SE
Cosmos 2237 Rocket 2.2 20:55:43 10° NNW 21:01:27 84° WSW 21:05:21 21° SSE
NOSS 3-1 (A) 3.7 20:55:32 10° SW 21:01:29 73° NW 21:08:12 10° NE
H-2A R/B 2.1 21:03:57 21° SSE 21:07:41 86° ENE 21:13:10 10° NNW
SeaSat 1 4.2 21:04:23 10° E 21:08:14 23° NE 21:12:06 10° N
Cosmos 2082 3.7 21:03:20 10° SSW 21:09:01 74° ESE 21:14:46 10° NNE
Meteor 1-4 Rocket 4.2 21:07:35 10° NNW 21:10:54 30° W 21:13:43 13° SSW
Cosmos 1241 Rocket 4.4 21:13:36 10° SSW 21:19:48 89° ESE 21:26:08 10° NE
IGS 5A 3.4 21:17:44 28° SSE 21:19:52 88° WSW 21:24:05 10° NNW
Cosmos 1869 3.4 21:16:18 10° NNW 21:20:23 78° W 21:22:24 28° S
Cosmos 1048 Rocket 4.3 21:15:27 10° NNW 21:20:46 59° ENE 21:23:45 26° SE
Landsat 7 4.3 21:18:04 20° S 21:21:12 57° W 21:25:55 10° NNW
Cosmos 1125 Rocket 3.7 21:19:33 24° S 21:22:30 51° ESE 21:27:39 10° NNE
ATLAS 2AS CENTAUR R/B 3.0 21:16:15 10° SSW 21:23:44 73° ESE 21:31:49 10° NE
Cosmos 1869 Rocket 4.3 21:25:06 29° SE 21:26:36 38° E 21:30:45 10° NNE
Nadezhda 1 Rocket 4.4 21:22:55 10° NNW 21:28:53 58° W 21:33:29 17° SSW
BREEZE-M DEB (TANK) 3.8 21:28:48 31° SE 21:29:12 32° SE 21:35:46 10° ENE
Cosmos 44 Rocket 4.2 21:29:09 29° SE 21:30:25 32° ESE 21:35:03 10° NE
CZ-4C R/B 4.5 21:31:23 19° SW 21:33:06 30° W 21:36:13 10° NW
ATLAS 3B R/B 2.6 21:26:33 10° NW 21:33:39 87° SW 21:37:38 27° SSE
Terra 2.2 21:34:26 25° S 21:37:04 56° W 21:41:47 10° NNW
Cosmos 372 Rocket 4.5 21:37:40 31° SSE 21:39:31 42° ESE 21:44:26 10° NE
Cosmos 1626 3.1 21:37:44 19° SW 21:40:08 43° WNW 21:43:45 10° N
Cosmos 2227 Rocket 2.6 21:36:20 10° SW 21:41:56 62° WNW 21:47:35 10° NNE
Okean 1-7 3.3 21:39:08 10° N 21:43:20 52° ENE 21:44:40 37° SE
ALOS 2 4.3 21:44:03 18° E 21:45:53 23° ENE 21:49:21 10° NNE
Spot 4 4.2 21:44:58 28° S 21:47:23 58° W 21:52:12 10° NNW
USA 238 DEB 4.0 21:40:40 10° NW 21:47:41 64° NE 21:52:27 22° ESE
USA 238 4.0 21:40:46 10° NW 21:47:47 63° NE 21:52:34 21° ESE
CZ-4B R/B 3.7 21:48:29 14° E 21:49:18 15° ENE 21:51:21 10° NNE
Cosmos 389 Rocket 2.7 21:46:14 10° N 21:49:45 56° ENE 21:50:21 48° ESE
Cosmos 1709 Rocket 4.0 21:48:57 23° SSW 21:52:56 82° W 21:59:05 10° N
SL-16 R/B 2.3 21:50:34 10° NNW 21:56:13 69° WSW 21:58:47 33° S
Cosmos 1703 Rocket 3.7 21:53:12 10° NNW 21:57:33 68° W 21:59:08 38° SSW
NOSS 2-3 (E) 4.0 21:56:08 33° S 21:58:13 59° ESE 22:03:48 10° NE
Cosmos 2333 Rocket 3.7 21:53:35 10° NW 21:58:20 27° WSW 22:01:30 17° SSW
Cosmos 2084 Rocket 4.3 22:02:44 29° E 22:02:44 29° E 22:05:22 10° ENE
COSMOS 2455 3.2 22:00:06 10° NW 22:05:57 53° WSW 22:08:31 32° S
Cosmos 2297 Rocket 2.8 22:03:09 10° SW 22:08:40 55° WNW 22:14:15 10° NNE
Cosmos 2219 Rocket 4.3 22:07:11 10° WNW 22:10:25 16° W 22:13:38 10° SW
Cosmos 1932 4.5 22:04:42 10° NW 22:11:09 85° NE 22:14:24 32° SE
ERBS 4.2 22:08:15 10° W 22:11:27 32° NNW 22:14:38 10° NE
Lacrosse 4 Rocket 2.3 22:09:28 10° NW 22:13:39 41° WSW 22:14:40 35° SSW
Coronas F rocket 3.9 22:15:13 14° ENE 22:15:13 14° ENE 22:15:57 10° NE
Cosmos 2221 Rocket 4.3 22:10:52 10° NNW 22:15:16 47° W 22:16:53 32° SW
Cosmos 1943 4.4 22:12:16 10° NNW 22:17:28 35° NE 22:20:59 18° ESE
Tiangong 1 3.5 22:15:27 10° W 22:16:04 15° WSW 22:16:04 15° WSW
Cosmos 44 3.9 22:24:17 39° SE 22:25:10 42° ESE 22:30:18 10° NE
NOSS 2-3 (C) 4.0 22:22:42 27° SW 22:25:33 89° NW 22:31:25 10° NE
Aureole 2 Rocket 2.3 22:24:18 10° NNW 22:27:24 70° W 22:27:24 70° W
CZ-4C R/B 3.2 22:20:42 10° NW 22:27:35 62° NE 22:33:04 20° ESE
Cosmos 1603 3.6 22:24:42 10° NNW 22:30:26 89° ENE 22:32:37 40° SSE
Cosmos 2184 Rocket 3.9 22:29:29 35° S 22:32:17 87° E 22:38:30 10° N
COS B Rocket 4.4 22:28:38 10° NNW 22:32:17 39° W 22:33:33 31° SW
CZ-4C R/B 2.9 22:33:51 78° SE 22:34:01 82° ENE 22:37:40 10° N
Cosmos 1782 3.4 22:32:03 10° N 22:35:53 45° ENE 22:36:26 42° ESE
Cosmos 2251 Rocket 3.5 22:30:39 10° NNW 22:36:00 82° WSW 22:37:41 45° S
Cosmos 1238 Rocket 4.0 22:36:20 10° NNE 22:39:38 26° ENE 22:40:01 26° E
Cosmos 1689 Rocket 2.7 22:39:54 55° ENE 22:39:54 55° ENE 22:43:05 10° N
Cosmos 1340 Rocket 2.6 22:42:31 69° SE 22:42:49 74° E 22:46:45 10° NNE
NOSS 3-2 (A) 4.2 22:35:48 10° NW 22:43:08 66° NE 22:48:59 20° SE
Cosmos 2237 Rocket 4.4 22:42:15 10° WNW 22:44:35 13° W 22:46:55 10° WSW
SeaSat 1 2.5 22:44:07 46° S 22:45:24 63° WSW 22:50:19 10° NNW
Landsat 5 3.8 22:44:21 48° SE 22:45:26 67° ENE 22:49:59 10° N
NOSS 3-4 (A) 4.3 22:44:48 31° SE 22:46:00 33° ESE 22:51:45 10° NE
NOSS 3-4 (C) 4.3 22:44:56 31° SE 22:46:07 33° ESE 22:51:50 10° NE
NOSS 2-3 (D) 4.3 22:43:28 21° SW 22:46:50 67° NW 22:52:42 10° NE
H-2A R/B 4.4 22:45:05 10° WSW 22:47:48 14° W 22:50:32 10° WNW
Cosmos 494 Rocket 3.9 22:43:24 10° NNW 22:48:42 89° ENE 22:50:19 46° SSE
ASTEX 1 3.3 22:45:58 10° N 22:50:53 84° E 22:52:10 50° S
H-2A R/B 2.5 22:47:13 10° NNE 22:51:29 79° ESE 22:52:14 60° S
Cosmos 2341 Rocket 4.3 22:54:27 36° SSE 22:56:52 57° E 23:03:05 10° NNE
Cosmos 1867 4.2 22:54:20 10° NNW 22:59:43 52° NE 23:02:54 24° ESE
Cosmos 1606 3.1 22:57:00 10° N 23:00:46 50° ENE 23:01:08 48° E
Helios 1A Rocket 3.2 22:57:01 10° NNE 23:01:07 52° E 23:01:28 51° ESE
MOS 1-B Rocket 4.0 23:00:03 35° SE 23:02:23 64° ENE 23:07:57 10° N
CZ-3 Stage 3 4.4 22:30:45 10° WSW 23:02:47 37° SSW 23:05:06 32° S
Cosmos 1733 Rocket 3.1 23:02:18 54° SSW 23:03:12 75° W 23:07:41 10° N
Uosat 12 SS-18 rocket 4.3 23:01:36 35° SW 23:03:37 72° NW 23:08:02 10° NNE
CZ-2C R/B 4.2 23:03:25 24° ESE 23:06:18 40° ENE 23:11:27 10° N
RESURS DK-1 4.2 23:08:56 20° E 23:08:56 20° E 23:11:36 10° ENE
Cosmos 44 Rocket 4.4 23:07:48 15° WSW 23:11:51 44° NW 23:16:53 10° NNE
GEOS 3 Rocket 3.6 23:10:33 47° S 23:11:53 63° SW 23:17:03 10° NW
Sich 1 Rocket 3.5 23:11:16 60° S 23:12:02 82° E 23:16:36 10° N
Cosmos 1378 Rocket 3.7 23:08:48 10° N 23:13:10 65° E 23:13:55 54° SE
Cosmos 1408 3.5 23:15:14 39° E 23:15:14 39° E 23:18:45 10° NNE
ATLAS 2AS CENTAUR R/B 4.4 23:08:17 10° WSW 23:15:28 38° NW 23:22:59 10° NNE
Cosmos 1892 3.6 23:18:19 36° W 23:18:49 38° WNW 23:22:24 10° N
CZ-4B R/B 2.5 23:22:15 34° W 23:22:15 34° W 23:25:04 10° NNW
ALOS 2 3.4 23:21:26 36° WSW 23:22:01 38° W 23:26:07 10° NNW
ATLAS 3B R/B 4.2 23:18:58 10° WNW 23:23:17 18° WSW 23:24:52 16° WSW
Meteor 2-10 Rocket 4.4 23:18:02 10° NNW 23:23:18 43° W 23:25:08 33° SW
Cosmos 1862 3.3 23:23:11 61° ESE 23:23:28 63° E 23:27:27 10° NNE
Cosmos 2263 Rocket 2.6 23:24:46 41° SSE 23:26:12 50° ESE 23:31:41 10° NE
Cosmos 1607 4.3 23:26:12 10° NW 23:32:00 45° WSW 23:33:26 38° SSW
Nadezhda 3 Rocket 4.3 23:27:46 10° NNW 23:33:51 57° W 23:36:10 37° SSW
Cosmos 1825 2.0 23:37:33 75° ESE 23:37:40 76° E 23:41:29 10° NNE
Cosmos 1782 Rocket 3.5 23:42:00 61° SSE 23:42:42 79° E 23:47:07 10° N
CZ-2C R/B 2.5 23:38:43 10° NNE 23:43:58 90° ESE 23:45:31 47° SSW
Coronas F rocket 3.9 23:46:19 15° WNW 23:46:19 15° WNW 23:47:36 10° NNW
BREEZE-M DEB (TANK) 4.1 23:26:10 10° WSW 23:45:57 86° SSE 23:50:40 10° ENE
Okean 2 Rocket 3.1 23:46:10 56° SSE 23:47:01 74° E 23:51:32 10° NNE
Cosmos 921 Rocket 3.9 23:46:42 32° WSW 23:47:48 39° WNW 23:51:48 10° N
Cosmos 1242 Rocket 3.5 23:45:07 10° N 23:48:24 36° ENE 23:48:51 34° E
Cosmos 1727 Rocket 4.3 23:43:41 10° N 23:49:53 62° ENE 23:52:55 30° SSE
Cosmos 1371 Rocket 4.3 23:50:32 42° SSE 23:52:01 58° ESE 23:57:17 10° NNE
Cosmos 2056 Rocket 4.2 23:51:31 35° SE 23:52:55 43° ESE 23:57:51 10° NE
